Simultaneous Nadir Overpasses (SNOs) Predictions

Prediction of SNOs between METOP-A and NOAA-19 Satellite Orbit:

Table of predicted SNOs for the next 14.0 days since TLE Epoch: 11/28/2020
Index Date (METOP-A) Time (METOP-A) Lat,Lon (METOP-A) SZA (METOP-A ) Date (NOAA-19) Time (NOAA-19) Lat,Lon (NOAA-19) SZA (NOAA-19 ) Distance(km) Time Diff (sec)
1 12/07/2020 10:58:29 80.79, 28.26 103.71 12/07/2020 10:57:25 80.78, 28.33 103.70 1.29 64
2 12/07/2020 11:49:10 -80.79,-164.38 76.29 12/07/2020 11:48:29 -80.78,-164.45 76.30 1.26 41
3 12/07/2020 12:39:51 80.78, 2.77 103.71 12/07/2020 12:39:26 80.79, 2.64 103.71 2.73 25
4 12/07/2020 13:30:32 -80.78, 170.13 76.29 12/07/2020 13:30:29 -80.78, 170.22 76.29 1.59 3
5 12/07/2020 14:21:12 80.79, -22.37 103.73 12/07/2020 14:21:25 80.78, -22.32 103.73 1.64 13
6 12/07/2020 15:11:53 -80.79, 144.99 76.27 12/07/2020 15:12:29 -80.78, 144.89 76.28 2.34 36
7 12/07/2020 16:02:34 80.78, -47.86 103.73 12/07/2020 16:03:26 80.78, -48.01 103.73 2.74 52
